Location: Newark
(25.4800°N, 85.7200°E)
Time: 10:17:59
(UTC+00:00)

Explorer 11/Cluster Stage 4 - Pass Details

Date: 23 August 2019
Orbit: 467 x 1260 km, 28.8° (Epoch: 19 September)

Event Time Altitude Azimuth Distance (km) Brightness Sun altitude
Rises 09:54:41 0° 284° (WNW) 4,061 11.1 37.5°
Reaches altitude 10° 09:57:47 10° 280° (W) 3,010 10.8 36.8°
Maximum altitude 10:05:01 57° 205° (SSW) 1,151 8.2 35.2°
Drops below altitude 10° 10:10:53 10° 127° (SE) 2,458 8.8 33.9°
Sets 10:13:12 0° 123° (ESE) 3,271 9.4 33.4°
